Location: Boiro
(42.6475°N, 8.8834°W)
Time: 02:20:42
(UTC+01:00)

Transit 2A Rocket - Pass Details

Date: 08 December 2021
Orbit: 584 x 917 km, 66.7° (Epoch: 23 January)

Event Time Altitude Azimuth Distance (km) Brightness Sun altitude
Rises 07:52:00 0° 201° (SSW) 3,290 8.3 -10.9°
Reaches altitude 10° 07:54:20 10° 199° (SSW) 2,410 7.6 -10.5°
Maximum altitude 07:59:55 70° 117° (ESE) 923 5.7 -9.6°
Drops below altitude 10° 08:05:56 10° 35° (NE) 2,590 7.9 -8.5°
Sets 08:08:31 0° 33° (NNE) 3,552 8.6 -8.1°
